Tracking 20719 objects as of 25-May-2020
HD Live streaming from Space Station
objects crossing your sky now

GALAXY 9

Track GALAXY 9 now!
GALAXY 9 is classified as:


NORAD ID: 23877
Int'l Code: 1996-033A
Perigee: 35,972.1 km
Apogee: 36,029.8 km
Inclination: 8.5 °
Period: 1,446.7 minutes
Semi major axis: 42371 km
RCS: 8.797 m2 (large)
Launch date: May 24, 1996
Source: United States (US)
Launch site: AIR FORCE EASTERN TEST RANGE (AFETR)

Voice and vision communication; 24 C-band; North America, Caribbean.
aabbcc
Your satellite tracking list
Your tracking list is empty




NASA's NSSDC Master Catalog

Two Line Element Set (TLE):
1 23877U 96033A   20142.89462275 +.00000119 +00000-0 +00000-0 0  9991
2 23877 008.5300 046.6522 0006815 074.0062 130.4162 00.99537188024282
Source of the keplerian elements: AFSPC